Tracking 17857 objects as of 29-September-2016
HD Live streaming from Space Station
objects crossing your sky now

CZ-2D DEB

Track CZ-2D DEB now!
10-day predictions


NORAD ID: 28742
Int'l Code: 2005-024F
Perigee: 521.4 km
Apogee: 688.9 km
Inclination: 97.7 °
Period: 96.6 minutes
Semi major axis: 6976 km
RCS: 0.0146 m2 (small)
Launch date: July 5, 2005
Source: People's Republic of China (PRC)
Launch site: Jiuquan Satellite Launch Center, China (JSC)

Note: This is SATELLITE DEBRIS
Your satellite tracking list
Your tracking list is empty





NASA's NSSDC Master Catalog

Two Line Element Set (TLE):
1 28742U 05024F   16271.88719944  .00003227  00000-0  29785-3 0  9999
2 28742  97.6557  72.5028 0120032  10.6188 349.7522 14.89971382598006
Source of the keplerian elements: AFSPC

N2YO: 497